Weather History for Crockett, TX

Change the Weather History Date:

Friday, March 15, 2013

  Actual Average (KLFK) Record (KLFK)
Temperature  
Mean Temperature 62 °F 59 °F  
Max Temperature 77 °F 71 °F 87 °F (1936)
Min Temperature 46 °F 48 °F 26 °F (1988)
Degree Days  
Heating Degree Days 4 7  
Month to date heating degree days 125  
Since 1 July heating degree days 1759  
Cooling Degree Days 0 1  
Month to date cooling degree days 15  
Year to date cooling degree days 34  
Growing Degree Days 12 (Base 50)    
Moisture  
Dew Point 49 °F    
Average Humidity 64    
Maximum Humidity 93    
Minimum Humidity 36    
Precipitation  
Precipitation 0.00 in 0.13 in 3.02 in (1969)
Month to date precipitation 1.90  
Year to date precipitation 9.95  
Snow  
Snow 0.00 in - - ()
Month to date snowfall  
Since 1 July snowfall  
Snow Depth -    
Sea Level Pressure  
Sea Level Pressure 30.17 in    
Wind  
Wind Speed 6 mph (South)    
Max Wind Speed 17 mph    
Max Gust Speed 24 mph    
Visibility 10 miles    
Events      
T = Trace of Precipitation, MM = Missing Value Source: NWS Daily Summary

Daily Weather History Graph

Daily Weather History Graph

Search for Another Location

Airport:

Trip Planner

Search our weather history database for the weather conditions in past years. The results will help you decide how hot, cold, wet, or windy it might be!

Date:

Astronomy

Mar. 15, 2013 Rise Set
Actual Time 7:31 AM CDT 7:29 PM CDT
Civil Twilight 7:07 AM CDT 7:54 PM CDT
Nautical Twilight 6:39 AM CDT 8:22 PM CDT
Astronomical Twilight 6:10 AM CDT 8:50 PM CDT
Moon 9:39 AM CDT (3/15) 11:26 PM CDT (3/15)
Length of Visible Light 12h 47m
Length of Day
11h 58m
Waxing Crescent, 15% of the Moon is Illuminated
Mar 15
Waxing Crescent
Mar 19
First Quarter
Mar 27
Full
Apr 2
Last Quarter
Apr 10
New

Hourly Weather History & Observations

Time (CDT) Temp. Dew Point Humidity Pressure Visibility Wind Dir Wind Speed Gust Speed Precip Events Conditions
12:15 AM 57.2 °F 44.6 °F 63% 30.29 in 10.0 mi South 5.8 mph - N/A   Clear
12:35 AM 55.4 °F 46.4 °F 72% 30.29 in 10.0 mi South 4.6 mph - N/A   Clear
12:55 AM 55.4 °F 46.4 °F 72% 30.29 in 10.0 mi South 5.8 mph - N/A   Clear
1:15 AM 55.4 °F 46.4 °F 72% 30.29 in 10.0 mi SSE 4.6 mph - N/A   Clear
1:35 AM 53.6 °F 46.4 °F 77% 30.29 in 10.0 mi South 4.6 mph - N/A   Clear
1:55 AM 53.6 °F 46.4 °F 77% 30.28 in 10.0 mi South 4.6 mph - N/A   Clear
2:15 AM 53.6 °F 46.4 °F 77% 30.28 in 10.0 mi South 4.6 mph - N/A   Clear
2:35 AM 53.6 °F 46.4 °F 77% 30.27 in 10.0 mi South 5.8 mph - N/A   Clear
2:55 AM 51.8 °F 46.4 °F 82% 30.27 in 10.0 mi South 4.6 mph - N/A   Clear
3:15 AM 51.8 °F 46.4 °F 82% 30.26 in 10.0 mi South 4.6 mph - N/A   Clear
3:35 AM 50.0 °F 46.4 °F 87% 30.26 in 10.0 mi South 4.6 mph - N/A   Clear
3:55 AM 50.0 °F 46.4 °F 87% 30.26 in 10.0 mi Calm Calm - N/A   Clear
4:35 AM 48.2 °F 44.6 °F 87% 30.24 in 10.0 mi Calm Calm - N/A   Clear
4:55 AM 48.2 °F 44.6 °F 87% 30.24 in 10.0 mi South 4.6 mph - N/A   Clear
5:15 AM 48.2 °F 46.4 °F 93% 30.24 in 10.0 mi South 4.6 mph - N/A   Clear
5:35 AM 48.2 °F 44.6 °F 87% 30.24 in 10.0 mi South 4.6 mph - N/A   Clear
5:55 AM 48.2 °F 44.6 °F 87% 30.24 in 10.0 mi South 4.6 mph - N/A   Clear
6:15 AM 48.2 °F 46.4 °F 93% 30.24 in 10.0 mi Calm Calm - N/A   Clear
6:35 AM 46.4 °F 44.6 °F 93% 30.24 in 10.0 mi Calm Calm - N/A   Clear
6:55 AM 48.2 °F 46.4 °F 93% 30.25 in 10.0 mi Calm Calm - N/A   Clear
7:15 AM 48.2 °F 44.6 °F 87% 30.25 in 10.0 mi Calm Calm - N/A   Clear
7:35 AM 46.4 °F 44.6 °F 93% 30.25 in 10.0 mi Calm Calm - N/A   Clear
7:55 AM 48.2 °F 46.4 °F 93% 30.25 in 10.0 mi Calm Calm - N/A   Clear
8:15 AM 50.0 °F 46.4 °F 87% 30.25 in 10.0 mi Calm Calm - N/A   Clear
8:35 AM 51.8 °F 46.4 °F 82% 30.26 in 9.0 mi Calm Calm - N/A   Clear
8:55 AM 53.6 °F 48.2 °F 82% 30.26 in 10.0 mi South 4.6 mph - N/A   Clear
9:15 AM 55.4 °F 48.2 °F 77% 30.26 in 10.0 mi South 5.8 mph - N/A   Clear
9:35 AM 57.2 °F 50.0 °F 77% 30.25 in 10.0 mi South 9.2 mph - N/A   Clear
10:55 AM 66.2 °F 55.4 °F 68% 30.25 in 10.0 mi SSW 11.5 mph - N/A   Clear
11:15 AM 66.2 °F 55.4 °F 68% 30.25 in 10.0 mi SSW 12.7 mph - N/A   Clear
11:35 AM 68.0 °F 55.4 °F 64% 30.25 in 10.0 mi SSW 12.7 mph - N/A   Clear
11:55 AM 69.8 °F 55.4 °F 60% 30.24 in 10.0 mi SSW 11.5 mph - N/A   Clear
12:15 PM 71.6 °F 55.4 °F 57% 30.23 in 10.0 mi SSW 17.3 mph 21.9 mph N/A   Clear
12:35 PM 71.6 °F 55.4 °F 57% 30.22 in 10.0 mi SW 10.4 mph - N/A   Clear
12:55 PM 71.6 °F 55.4 °F 57% 30.21 in 10.0 mi SSW 12.7 mph 19.6 mph N/A   Clear
1:15 PM 73.4 °F 55.4 °F 53% 30.19 in 10.0 mi SSW 13.8 mph - N/A   Clear
1:35 PM 73.4 °F 55.4 °F 53% 30.18 in 10.0 mi SSW 9.2 mph - N/A   Clear
1:55 PM 75.2 °F 55.4 °F 50% 30.16 in 10.0 mi SSW 13.8 mph 19.6 mph N/A   Clear
2:15 PM 75.2 °F 53.6 °F 47% 30.14 in 10.0 mi South 9.2 mph 20.7 mph N/A   Clear
2:55 PM 75.2 °F 51.8 °F 44% 30.12 in 10.0 mi SSW 12.7 mph 18.4 mph N/A   Clear
3:15 PM 77.0 °F 51.8 °F 41% 30.11 in 10.0 mi SSW 8.1 mph 17.3 mph N/A   Clear
3:35 PM 77.0 °F 50.0 °F 39% 30.10 in 10.0 mi SSW 12.7 mph 24.2 mph N/A   Clear
3:55 PM 77.0 °F 50.0 °F 39% 30.09 in 10.0 mi SW 16.1 mph - N/A   Clear
4:15 PM 77.0 °F 48.2 °F 36% 30.09 in 10.0 mi SSW 11.5 mph 19.6 mph N/A   Clear
4:35 PM 75.2 °F 48.2 °F 38% 30.08 in 4.0 mi South 12.7 mph 20.7 mph N/A   Haze
4:55 PM 75.2 °F 46.4 °F 36% 30.08 in 5.0 mi South 15.0 mph 21.9 mph N/A   Haze
5:15 PM 75.2 °F 48.2 °F 38% 30.07 in 5.0 mi South 11.5 mph 18.4 mph N/A   Haze
5:35 PM 75.2 °F 46.4 °F 36% 30.07 in 7.0 mi South 10.4 mph - N/A   Clear
5:55 PM 75.2 °F 46.4 °F 36% 30.06 in 8.0 mi SSW 9.2 mph - N/A   Clear
6:15 PM 75.2 °F 46.4 °F 36% 30.06 in 7.0 mi SSW 9.2 mph - N/A   Clear
6:35 PM 75.2 °F 46.4 °F 36% 30.06 in 9.0 mi SSW 5.8 mph - N/A   Clear
6:55 PM 73.4 °F 46.4 °F 38% 30.05 in 9.0 mi South 6.9 mph - N/A   Clear
7:15 PM 71.6 °F 48.2 °F 43% 30.05 in 9.0 mi South 6.9 mph - N/A   Clear
7:35 PM 69.8 °F 48.2 °F 46% 30.04 in 10.0 mi South 4.6 mph - N/A   Light Drizzle
7:55 PM 69.8 °F 48.2 °F 46% 30.04 in 10.0 mi South 6.9 mph - N/A   Light Drizzle
8:15 PM 68.0 °F 48.2 °F 49% 30.04 in 10.0 mi South 4.6 mph - N/A   Clear
8:35 PM 66.2 °F 48.2 °F 52% 30.05 in 10.0 mi South 6.9 mph - N/A   Light Drizzle
8:55 PM 66.2 °F 50.0 °F 56% 30.05 in 10.0 mi South 8.1 mph - N/A   Light Drizzle
9:15 PM 66.2 °F 50.0 °F 56% 30.05 in 10.0 mi South 8.1 mph - N/A   Light Drizzle
9:35 PM 66.2 °F 50.0 °F 56% 30.05 in 10.0 mi SSW 9.2 mph - N/A   Light Drizzle
9:55 PM 66.2 °F 51.8 °F 60% 30.06 in 10.0 mi South 9.2 mph - N/A   Light Drizzle
10:15 PM 66.2 °F 51.8 °F 60% 30.06 in 10.0 mi SSW 11.5 mph - N/A   Light Drizzle
10:35 PM 66.2 °F 51.8 °F 60% 30.06 in 10.0 mi South 10.4 mph - N/A   Clear
10:55 PM 64.4 °F 51.8 °F 64% 30.06 in 10.0 mi SSW 12.7 mph - N/A   Light Drizzle
11:15 PM 64.4 °F 51.8 °F 64% 30.06 in 10.0 mi South 12.7 mph 16.1 mph N/A   Clear
11:35 PM 64.4 °F 51.8 °F 64% 30.06 in 10.0 mi South 10.4 mph - N/A   Light Drizzle
11:55 PM 62.6 °F 51.8 °F 68% 30.05 in 10.0 mi South 10.4 mph 16.1 mph N/A   Light Drizzle